[[{"header":{"parameterUnit":"m.s-1","parameterCategory":1,"la1":30.2991,"la2":30.254,"lo1":-89.0895,"lo2":-89.0444,"dy":0.0017,"dx":0.0017,"nx":28,"ny":28,"refTime":"2023-09-24T03:00:00:Z","depth":0,"parameterNumber":2,"parameterNumberName":"U-component_of_WINDS"},"data":[0,0,0,0,0,0,0,0,0,0,0,0,0,0,0,0,0,0,0,0,0,0,0,0,0,0,0,0,0,0,0,0,0,0,0,0,0,0,0,0,0,0,0,0,0,0,0,0,0,0,0,0,0,0,0,0,0,0,0.2673,0.2675,0,0.2832,0.2834,0.2836,0.2912,0.2912,0.2911,0.2911,0.3073,0.3077,0.3081,0,0,0,0,0,0,0,0,0,0,0,0,0,0.2432,0.2436,0.2673,0.2675,0.2677,0.2832,0.2834,0.2836,0.2912,0.2912,0.2911,0.2911,0.3072,0.3077,0.3082,0,0,0,0,0,0,0,0,0,0,0,0,0,0.2559,0.2438,0.2673,0.2733,0.274,0.2831,0.2834,0.2837,0.2912,0.2912,0.2911,0.2911,0.307,0.3076,0.3083,0.3125,0,0,0.3103,0.3105,0,0,0,0,0,0,0,0,0.2551,0.2567,0.2722,0.2729,0.2737,0.2852,0.2809,0.2933,0.2912,0.2847,0.2911,0.2911,0.2999,0.3012,0.3042,0.3132,0.3139,0.3103,0.3107,0.311,0.3112,0,0,0,0,0,0,0,0.2543,0.2561,0.2736,0.2725,0.2734,0.2752,0.277,0.2833,0.2922,0.2852,0.2858,0.2876,0.3003,0.3035,0.3046,0.3142,0.3103,0.3109,0.3113,0.3115,0.3274,0.3275,0,0,0,0,0,0,0.2524,0.2553,0.2731,0.2741,0.2642,0.2756,0.2776,0.2815,0.2921,0.2937,0.2876,0.2879,0.3024,0.3038,0.3052,0.3109,0.311,0.3116,0.312,0.3274,0.3274,0.3275,0,0,0,0,0,0,0.2519,0.2539,0.2725,0.2649,0.2674,0.2761,0.2804,0.2818,0.285,0.2939,0.2955,0.2892,0.3025,0.3043,0.3106,0.3115,0.3119,0.3125,0.3274,0.3274,0.3275,0.3221,0,0,0,0,0,0,0.2512,0.2537,0.2555,0.2649,0.2677,0.2776,0.2804,0.2822,0.2862,0.2867,0.2959,0.2974,0.3026,0.3096,0.3113,0.3124,0.313,0.3273,0.3274,0.3274,0.3223,0.322,0.3217,0,0,0,0,0,0.2503,0.2533,0.2555,0.2576,0.2701,0.2777,0.2793,0.2853,0.2862,0.288,0.2937,0.2971,0.3111,0.3102,0.3121,0.3135,0.3273,0.3274,0.3274,0.3224,0.322,0.3218,0,0,0,0,0,0,0.2438,0.2547,0.2572,0.2634,0.2696,0.279,0.2814,0.2848,0.2908,0.2911,0.2982,0.3002,0.3059,0.3103,0.3091,0.3181,0.3195,0.32,0.315,0.3148,0.3145,0.3133,0.3135,0,0,0,0,0,0.243,0.2483,0.2575,0.2621,0.2651,0.2727,0.2762,0.2803,0.2869,0.2896,0.2957,0.302,0.3078,0.3115,0.3174,0.3229,0.325,0.3248,0.3245,0.3242,0.3246,0.3278,0.3278,0.3277,0.3277,0.3277,0,0,0.2416,0.2482,0.2512,0.261,0.2662,0.2715,0.2748,0.2803,0.2842,0.2904,0.2968,0.3014,0.3089,0.3148,0.3178,0.3187,0.325,0.3243,0.3241,0.3246,0.3278,0.3278,0.3278,0.3277,0.3277,0.3277,0,0,0.2418,0.2473,0.2517,0.2569,0.2648,0.2698,0.2708,0.2797,0.2831,0.2896,0.2943,0.299,0.309,0.3141,0.318,0.3198,0.3232,0.3215,0.3202,0.3232,0.3232,0.3233,0.3239,0.3241,0.3218,0.3218,0.3218,0,0.239,0.2472,0.2535,0.2587,0.2628,0.2686,0.2731,0.2778,0.2872,0.2899,0.2908,0.3033,0.3087,0.3159,0.3163,0.3193,0.3207,0.3206,0.3227,0.3228,0.323,0.3237,0.3239,0.3216,0.3216,0.3216,0.3216,0,0.2434,0.249,0.2516,0.2605,0.2649,0.2697,0.2767,0.2804,0.284,0.2889,0.2953,0.302,0.3093,0.3113,0.3149,0.319,0.3193,0.3214,0.323,0.3226,0.3234,0.3237,0.3212,0.3213,0.3214,0.3214,0,0,0.24,0.2523,0.2532,0.2573,0.2664,0.2708,0.2757,0.2829,0.2859,0.2921,0.2964,0.3046,0.3065,0.3109,0.3151,0.3178,0.3188,0.3195,0.3198,0.3192,0.3236,0.322,0.3222,0.321,0.3211,0.3211,0.323,0,0.2414,0.2507,0.2565,0.2634,0.2686,0.2741,0.2784,0.2844,0.2891,0.2941,0.2992,0.3049,0.307,0.3097,0.3125,0.318,0.3198,0.318,0.325,0.3252,0.3231,0.3227,0.3211,0.3225,0.3233,0.3234,0.3234,0,0.2444,0.2505,0.2579,0.2664,0.2688,0.2726,0.2795,0.2843,0.2911,0.2943,0.2991,0.3033,0.3087,0.3097,0.3172,0.3158,0.319,0.3222,0.3224,0.3233,0.3243,0.3236,0.3231,0.3233,0.324,0.3239,0.3239,0,0.2412,0.2513,0.257,0.2604,0.2703,0.2729,0.2771,0.284,0.2878,0.2939,0.2965,0.303,0.3066,0.3115,0.3173,0.3176,0.3242,0.3257,0.3269,0.3268,0.3282,0.328,0.3282,0.3301,0.3301,0.3301,0.3301,0,0.2422,0.2466,0.2557,0.2593,0.2642,0.2707,0.2755,0.2802,0.2862,0.2906,0.2957,0.2998,0.3072,0.3122,0.3167,0.3222,0.3238,0.3265,0.3276,0.3261,0.3257,0.3283,0.3284,0.3302,0.3302,0.3301,0.3301,0,0.2396,0.2459,0.2525,0.2614,0.2637,0.267,0.2745,0.2781,0.283,0.2886,0.2902,0.2978,0.3039,0.3102,0.3184,0.3215,0.3268,0.3284,0.3245,0.3252,0.326,0.3258,0.3279,0.3285,0.3299,0.3299,0.3299,0,0.2398,0.2433,0.2525,0.2559,0.2601,0.2655,0.2695,0.2759,0.2798,0.2878,0.2904,0.2969,0.3024,0.3118,0.318,0.3243,0.3261,0.3264,0.3271,0.3254,0.3262,0.3259,0.3263,0.3262,0.3261,0.3261,0.326,0,0.2397,0.2426,0.2482,0.2549,0.2595,0.265,0.2707,0.2732,0.2807,0.2849,0.2912,0.2954,0.3038,0.3101,0.3171,0.3214,0.325,0.3257,0.3264,0.3248,0.3224,0.3237,0.3238,0.3257,0.3257,0.3258,0.3258,0.3258,0.2385,0.2419,0.2489,0.2549,0.2599,0.2651,0.2689,0.2741,0.2795,0.2869,0.2903,0.2966,0.3032,0.313,0.3172,0.3221,0.3231,0.324,0.3243,0.3244,0.324,0.3216,0.3234,0.3234,0.3235,0.3235,0.3235,0,0.2386,0.2434,0.2489,0.2567,0.2614,0.2643,0.2708,0.2745,0.28,0.2859,0.2912,0.2984,0.3045,0.3111,0.3176,0.3203,0.322,0.3217,0.3216,0.3226,0.3227,0.3216,0.3202,0.3202,0.3202,0.3202,0.3202,0.3202,0.2393,0.245,0.2487,0.257,0.2617,0.2679,0.2713,0.2761,0.2809,0.2886,0.2938,0.298,0.3042,0.3111,0.3168,0.3186,0.3208,0.32,0.3222,0.3223,0.3226,0.3228,0.3217,0.3204,0.3204,0.3217,0.3217,0.3217]},{"header":{"parameterUnit":"m.s-1","parameterCategory":1,"la1":30.2991,"la2":30.254,"lo1":-89.0895,"lo2":-89.0444,"dy":0.0017,"dx":0.0017,"nx":28,"ny":28,"refTime":"2023-09-24T03:00:00:Z","depth":0,"parameterNumber":3,"parameterNumberName":"V-component_of_WINDS"},"data":[0,0,0,0,0,0,0,0,0,0,0,0,0,0,0,0,0,0,0,0,0,0,0,0,0,0,0,0,0,0,0,0,0,0,0,0,0,0,0,0,0,0,0,0,0,0,0,0,0,0,0,0,0,0,0,0,0,0,2.9361,2.9361,0,2.9357,2.9357,2.9357,2.9314,2.9313,2.9312,2.9311,2.9306,2.9307,2.9308,0,0,0,0,0,0,0,0,0,0,0,0,0,2.9333,2.9333,2.9361,2.9361,2.9361,2.9357,2.9357,2.9357,2.9314,2.9313,2.9311,2.931,2.9306,2.9307,2.9308,0,0,0,0,0,0,0,0,0,0,0,0,0,2.9338,2.9334,2.9361,2.9339,2.9337,2.9357,2.9357,2.9357,2.9314,2.9313,2.9311,2.9309,2.9306,2.9307,2.9308,2.9349,0,0,2.9312,2.9313,0,0,0,0,0,0,0,0,2.9338,2.9339,2.9343,2.9341,2.9339,2.9334,2.9345,2.9354,2.9315,2.9323,2.931,2.9309,2.9317,2.9317,2.932,2.9349,2.9348,2.9312,2.9313,2.9314,2.9314,0,0,0,0,0,0,0,2.9338,2.9339,2.9359,2.9343,2.934,2.933,2.9329,2.9347,2.9329,2.9322,2.9319,2.9319,2.9316,2.9319,2.932,2.9348,2.9312,2.9314,2.9314,2.9315,2.9409,2.9411,0,0,0,0,0,0,2.934,2.9339,2.936,2.9359,2.9334,2.9331,2.933,2.9337,2.9329,2.9326,2.932,2.9317,2.9317,2.9318,2.9319,2.9365,2.9314,2.9315,2.9316,2.9407,2.9409,2.9411,0,0,0,0,0,0,2.934,2.9343,2.936,2.9349,2.935,2.9334,2.9342,2.9338,2.9341,2.9327,2.9324,2.9327,2.9316,2.9317,2.9341,2.9365,2.9316,2.9317,2.9405,2.9408,2.941,2.9459,0,0,0,0,0,0,2.9339,2.9343,2.9358,2.9349,2.9351,2.9382,2.9343,2.9339,2.9343,2.9339,2.9333,2.933,2.9315,2.934,2.9343,2.9366,2.9318,2.9403,2.9406,2.9409,2.9455,2.9462,2.9469,0,0,0,0,0,2.9338,2.9372,2.9359,2.9362,2.9369,2.9384,2.9385,2.9366,2.9346,2.9361,2.9352,2.933,2.9362,2.9343,2.9346,2.9369,2.9402,2.9405,2.9409,2.9452,2.9461,2.9469,0,0,0,0,0,0,2.9385,2.9371,2.9356,2.9388,2.9387,2.9377,2.9395,2.9377,2.9383,2.9378,2.9355,2.9354,2.9382,2.9378,2.9357,2.9407,2.9378,2.9382,2.9409,2.9418,2.9425,2.9425,2.9319,0,0,0,0,0,2.9399,2.9411,2.9398,2.9428,2.9428,2.9412,2.9417,2.9403,2.9402,2.9402,2.9394,2.9394,2.9403,2.941,2.9419,2.9454,2.9452,2.9472,2.9479,2.9485,2.9489,2.9507,2.9515,2.9424,2.9424,2.9424,0,0,2.9427,2.9421,2.9431,2.9437,2.9435,2.9448,2.9412,2.9428,2.9438,2.9404,2.9426,2.9421,2.9419,2.9449,2.9461,2.9446,2.9514,2.9489,2.9494,2.9495,2.9511,2.952,2.9528,2.9426,2.9426,2.9425,0,0,2.9487,2.9484,2.9507,2.9506,2.9503,2.9492,2.9497,2.9489,2.9484,2.9506,2.9481,2.9492,2.9509,2.9509,2.9511,2.9569,2.9549,2.9572,2.9609,2.9627,2.9634,2.964,2.9661,2.9668,2.9577,2.9577,2.9577,0,2.9523,2.9542,2.9522,2.9539,2.9542,2.9512,2.9535,2.9535,2.9535,2.9538,2.9521,2.9542,2.9538,2.9567,2.9581,2.9584,2.9589,2.9573,2.9635,2.9641,2.9646,2.9665,2.9673,2.9579,2.9579,2.9579,2.9579,0,2.9587,2.9601,2.962,2.962,2.9626,2.9646,2.9629,2.9636,2.9622,2.9612,2.9635,2.9629,2.9635,2.9641,2.9627,2.9668,2.9659,2.9639,2.9608,2.9658,2.9676,2.9683,2.9583,2.9582,2.9582,2.9581,0,0,2.9676,2.9664,2.9671,2.9671,2.9665,2.9675,2.9694,2.97,2.9707,2.9708,2.9723,2.9738,2.9719,2.9721,2.9707,2.9722,2.9768,2.97,2.9699,2.9712,2.9812,2.9827,2.9836,2.9755,2.9756,2.9757,2.9812,0,2.9733,2.9764,2.9746,2.978,2.9792,2.9763,2.9779,2.9777,2.9769,2.9778,2.9768,2.9779,2.9753,2.9755,2.9769,2.9759,2.9788,2.9755,2.9769,2.9769,2.977,2.9845,2.9861,2.9914,2.9819,2.982,2.9821,0,2.9803,2.9806,2.9842,2.9833,2.9837,2.9852,2.9855,2.9864,2.9862,2.9854,2.9857,2.9838,2.9856,2.9826,2.985,2.9828,2.9833,2.9829,2.9831,2.9831,2.9798,2.9848,2.993,2.9938,2.9832,2.9831,2.983,0,2.9864,2.9877,2.99,2.99,2.989,2.9902,2.9898,2.9893,2.9898,2.9901,2.9903,2.9909,2.9912,2.9916,2.9899,2.9879,2.9926,2.9894,2.992,2.992,2.9931,2.9931,3.0015,2.9934,2.9934,2.9934,2.9934,0,2.9929,2.9952,2.9927,2.9941,2.9965,2.9943,2.9968,2.9961,2.9957,2.9969,2.9945,2.9957,2.9934,2.9944,2.9931,2.9952,2.9954,2.9948,2.9945,2.9951,2.9951,2.9953,2.9949,2.9936,2.9936,2.9935,2.9935,0,3.0001,2.9986,3.0008,2.9997,2.9994,3.0013,3.0003,3.0015,3.0004,3.002,3.0022,3.0006,3.0016,3.0,3.0008,2.9999,3.0029,3.002,3.003,3.0027,3.0054,3.0051,3.0142,3.0153,3.0065,3.0066,3.0067,0,3.0044,3.0061,3.0051,3.0057,3.0054,3.0064,3.0068,3.0048,3.0053,3.005,3.0063,3.0071,3.0076,3.0093,3.0082,3.0088,3.0079,3.011,3.0079,3.0084,3.0079,3.0078,3.0079,3.0116,3.0117,3.0118,3.0119,0,3.0121,3.0112,3.0119,3.0123,3.0128,3.013,3.0131,3.0137,3.0115,3.0122,3.0131,3.0135,3.0143,3.0151,3.0154,3.0151,3.0131,3.0128,3.0135,3.0141,3.0146,3.0143,3.0047,3.0126,3.0126,3.0125,3.0125,3.0124,3.018,3.0193,3.0188,3.0196,3.0193,3.0194,3.0205,3.0195,3.0203,3.0207,3.0194,3.0207,3.0203,3.0205,3.0203,3.0213,3.0199,3.0208,3.021,3.0213,3.0217,3.0144,3.0213,3.0213,3.0213,3.0213,3.0212,0,3.0256,3.025,3.0258,3.0259,3.0265,3.0245,3.0244,3.0251,3.0262,3.026,3.0265,3.0276,3.0283,3.0272,3.0278,3.0287,3.0279,3.0289,3.0289,3.0288,3.0229,3.0223,3.0296,3.0296,3.0296,3.0296,3.0296,3.0296,3.0296,3.0316,3.0307,3.0326,3.0321,3.0332,3.0333,3.0334,3.0332,3.0344,3.035,3.0343,3.0337,3.0342,3.0348,3.0344,3.0348,3.0362,3.0355,3.03,3.0292,3.0284,3.0278,3.0363,3.0363,3.0413,3.0414,3.0414]}]]